• In Österreich
  • Länderverzeichnis
  • Für 7 Tage
  • Wassertemperatur
  • Satellitenkarten
  • Wetterkarte
  • News
  • Widgets
  • user-avatar
    Anmelden

    Stündliche Wetter Tbilissi

    Heute, 23 September, Sonntag

    Zeit Temperatur Niederschläge Wind Luftdruck Luftfeuchtigkeit
    00:00 +16°C° 0.1 mm 1 m/S 703 mmHg 78%
    01:00 +16°C° 0 mm 1 m/S 703 mmHg 76%
    02:00 +16°C° 0 mm 1 m/S 703 mmHg 74%
    03:00 +16°C° 0 mm 1 m/S 703 mmHg 72%
    04:00 +16°C° 0 mm 1 m/S 703 mmHg 72%
    05:00 +16°C° 0 mm 1 m/S 703 mmHg 71%
    06:00 +15°C° 0 mm 1 m/S 703 mmHg 70%
    07:00 +18°C° 0 mm 1 m/S 703 mmHg 66%
    08:00 +20°C° 0 mm 1 m/S 703 mmHg 61%
    09:00 +21°C° 0 mm 1 m/S 703 mmHg 56%
    10:00 +23°C° 0 mm 1 m/S 703 mmHg 53%
    11:00 +24°C° 0 mm 1 m/S 703 mmHg 49%
    12:00 +26°C° 0 mm 1 m/S 703 mmHg 46%
    13:00 +26°C° 0.1 mm 1 m/S 703 mmHg 44%
    14:00 +26°C° 0.1 mm 2 m/S 703 mmHg 43%
    15:00 +27°C° 0.1 mm 2 m/S 703 mmHg 41%
    16:00 +25°C° 0.1 mm 2 m/S 703 mmHg 47%
    17:00 +23°C° 0.1 mm 1 m/S 703 mmHg 52%
    18:00 +21°C° 0.1 mm 1 m/S 703 mmHg 58%
    19:00 +20°C° 0.1 mm 1 m/S 703 mmHg 62%
    20:00 +18°C° 0.1 mm 2 m/S 703 mmHg 67%
    21:00 +17°C° 0.1 mm 2 m/S 704 mmHg 71%
    22:00 +17°C° 0 mm 2 m/S 704 mmHg 74%
    23:00 +16°C° 0 mm 2 m/S 704 mmHg 77%

    Morgen, 24 September, Montag

    Zeit Temperatur Niederschläge Wind Luftdruck Luftfeuchtigkeit
    00:00 +16°C° 0 mm 2 m/S 704 mmHg 80%
    01:00 +15°C° 0 mm 2 m/S 704 mmHg 81%
    02:00 +15°C° 0 mm 2 m/S 704 mmHg 83%
    03:00 +15°C° 0 mm 2 m/S 704 mmHg 84%
    04:00 +15°C° 0 mm 2 m/S 704 mmHg 84%
    05:00 +14°C° 0 mm 2 m/S 704 mmHg 84%
    06:00 +14°C° 0 mm 2 m/S 704 mmHg 83%
    07:00 +17°C° 0 mm 2 m/S 704 mmHg 73%
    08:00 +19°C° 0 mm 2 m/S 705 mmHg 62%
    09:00 +21°C° 0 mm 3 m/S 705 mmHg 52%
    10:00 +24°C° 0 mm 2 m/S 705 mmHg 47%
    11:00 +25°C° 0 mm 2 m/S 705 mmHg 41%
    12:00 +27°C° 0 mm 2 m/S 705 mmHg 36%
    13:00 +27°C° 0 mm 2 m/S 705 mmHg 35%
    14:00 +28°C° 0 mm 2 m/S 704 mmHg 34%
    15:00 +28°C° 0 mm 1 m/S 704 mmHg 32%
    16:00 +26°C° 0 mm 1 m/S 704 mmHg 38%
    17:00 +24°C° 0 mm 1 m/S 704 mmHg 43%
    18:00 +22°C° 0 mm 1 m/S 703 mmHg 48%
    19:00 +20°C° 0 mm 2 m/S 704 mmHg 51%
    20:00 +19°C° 0 mm 2 m/S 704 mmHg 54%
    21:00 +18°C° 0 mm 2 m/S 704 mmHg 57%
    22:00 +17°C° 0 mm 2 m/S 704 mmHg 57%
    23:00 +17°C° 0 mm 2 m/S 704 mmHg 57%

    übermorgen, 25 September, Dienstag

    Zeit Temperatur Niederschläge Wind Luftdruck Luftfeuchtigkeit
    00:00 +18°C° 0 mm 1 m/S 703 mmHg 58%
    01:00 +16°C° 0 mm 1 m/S 703 mmHg 60%
    02:00 +16°C° 0 mm 1 m/S 703 mmHg 62%
    03:00 +16°C° 0 mm 1 m/S 702 mmHg 64%
    04:00 +15°C° 0 mm 1 m/S 702 mmHg 66%
    05:00 +15°C° 0 mm 1 m/S 702 mmHg 67%
    06:00 +15°C° 0 mm 1 m/S 702 mmHg 69%
    07:00 +18°C° 0 mm 1 m/S 702 mmHg 63%
    08:00 +20°C° 0 mm 1 m/S 702 mmHg 56%
    09:00 +22°C° 0 mm 1 m/S 702 mmHg 50%
    10:00 +24°C° 0 mm 1 m/S 702 mmHg 46%
    11:00 +26°C° 0 mm 1 m/S 702 mmHg 42%
    12:00 +27°C° 0 mm 2 m/S 701 mmHg 39%
    13:00 +28°C° 0 mm 1 m/S 701 mmHg 37%
    14:00 +28°C° 0 mm 1 m/S 701 mmHg 36%
    15:00 +29°C° 0 mm 1 m/S 701 mmHg 35%
    16:00 +27°C° 0 mm 1 m/S 700 mmHg 40%
    17:00 +25°C° 0 mm 1 m/S 700 mmHg 45%
    18:00 +23°C° 0 mm 1 m/S 700 mmHg 50%
    19:00 +22°C° 0 mm 1 m/S 701 mmHg 52%
    20:00 +20°C° 0 mm 2 m/S 701 mmHg 55%
    21:00 +19°C° 0 mm 2 m/S 701 mmHg 57%
    22:00 +18°C° 0 mm 2 m/S 701 mmHg 58%
    23:00 +17°C° 0 mm 2 m/S 701 mmHg 60%

    26 September, Mittwoch

    Zeit Temperatur Niederschläge Wind Luftdruck Luftfeuchtigkeit
    00:00 +17°C° 0 mm 2 m/S 701 mmHg 62%
    01:00 +16°C° 0 mm 2 m/S 701 mmHg 64%
    02:00 +16°C° 0 mm 2 m/S 701 mmHg 67%
    03:00 +16°C° 0 mm 2 m/S 701 mmHg 69%
    04:00 +15°C° 0 mm 2 m/S 701 mmHg 70%
    05:00 +15°C° 0 mm 2 m/S 701 mmHg 72%
    06:00 +15°C° 0 mm 2 m/S 702 mmHg 74%
    07:00 +17°C° 0 mm 2 m/S 702 mmHg 67%
    08:00 +20°C° 0 mm 3 m/S 703 mmHg 60%
    09:00 +22°C° 0 mm 3 m/S 703 mmHg 53%
    10:00 +23°C° 0 mm 4 m/S 703 mmHg 50%
    11:00 +25°C° 0 mm 4 m/S 703 mmHg 46%
    12:00 +26°C° 0 mm 5 m/S 703 mmHg 42%
    13:00 +26°C° 0 mm 4 m/S 703 mmHg 42%
    14:00 +25°C° 0 mm 4 m/S 703 mmHg 42%
    15:00 +25°C° 0 mm 4 m/S 703 mmHg 41%
    16:00 +22°C° 0 mm 3 m/S 703 mmHg 47%
    17:00 +21°C° 0 mm 3 m/S 703 mmHg 54%
    18:00 +19°C° 0 mm 2 m/S 703 mmHg 60%
    19:00 +18°C° 0.1 mm 2 m/S 703 mmHg 63%
    20:00 +17°C° 0.1 mm 2 m/S 704 mmHg 67%
    21:00 +16°C° 0.1 mm 2 m/S 704 mmHg 70%
    22:00 +16°C° 0 mm 2 m/S 704 mmHg 71%
    23:00 +16°C° 0 mm 2 m/S 704 mmHg 71%

    27 September, Donnerstag

    Zeit Temperatur Niederschläge Wind Luftdruck Luftfeuchtigkeit
    00:00 +16°C° 0 mm 1 m/S 704 mmHg 72%
    01:00 +15°C° 0.1 mm 1 m/S 704 mmHg 73%
    02:00 +15°C° 0.1 mm 1 m/S 704 mmHg 75%
    03:00 +15°C° 0.1 mm 1 m/S 704 mmHg 76%
    04:00 +15°C° 0.1 mm 1 m/S 704 mmHg 76%
    05:00 +15°C° 0.1 mm 1 m/S 704 mmHg 77%
    06:00 +14°C° 0.1 mm 1 m/S 704 mmHg 78%
    07:00 +15°C° 0.1 mm 1 m/S 704 mmHg 75%
    08:00 +16°C° 0.1 mm 2 m/S 705 mmHg 72%
    09:00 +17°C° 0.1 mm 2 m/S 705 mmHg 70%
    10:00 +17°C° 0.1 mm 2 m/S 705 mmHg 68%
    11:00 +18°C° 0.1 mm 3 m/S 704 mmHg 65%
    12:00 +19°C° 0.1 mm 3 m/S 704 mmHg 63%
    13:00 +19°C° 0 mm 2 m/S 704 mmHg 63%
    14:00 +19°C° 0 mm 2 m/S 704 mmHg 63%
    15:00 +19°C° 0 mm 2 m/S 703 mmHg 62%
    16:00 +19°C° 0 mm 2 m/S 703 mmHg 66%
    17:00 +19°C° 0 mm 1 m/S 704 mmHg 70%
    18:00 +18°C° 0 mm 1 m/S 704 mmHg 73%
    19:00 +18°C° 0 mm 1 m/S 704 mmHg 74%
    20:00 +18°C° 0 mm 1 m/S 704 mmHg 74%
    21:00 +16°C° 0 mm 1 m/S 705 mmHg 75%
    22:00 +16°C° 0 mm 1 m/S 705 mmHg 75%
    23:00 +16°C° 0 mm 1 m/S 704 mmHg 75%

    28 September, Freitag

    Zeit Temperatur Niederschläge Wind Luftdruck Luftfeuchtigkeit
    00:00 +16°C° 0 mm 1 m/S 704 mmHg 76%
    01:00 +16°C° 0 mm 1 m/S 704 mmHg 76%
    02:00 +16°C° 0 mm 1 m/S 704 mmHg 76%
    03:00 +15°C° 0 mm 1 m/S 704 mmHg 76%
    04:00 +15°C° 0 mm 1 m/S 704 mmHg 76%
    05:00 +15°C° 0 mm 1 m/S 704 mmHg 76%
    06:00 +15°C° 0 mm 1 m/S 704 mmHg 76%
    07:00 +16°C° 0 mm 1 m/S 704 mmHg 72%
    08:00 +18°C° 0 mm 1 m/S 704 mmHg 68%
    09:00 +20°C° 0 mm 1 m/S 704 mmHg 64%
    10:00 +20°C° 0.4 mm 1 m/S 704 mmHg 65%
    11:00 +19°C° 0.4 mm 2 m/S 704 mmHg 66%
    12:00 +19°C° 0.4 mm 2 m/S 704 mmHg 66%
    13:00 +19°C° 0.1 mm 2 m/S 704 mmHg 62%
    14:00 +20°C° 0.1 mm 2 m/S 704 mmHg 58%
    15:00 +20°C° 0.1 mm 2 m/S 704 mmHg 53%
    16:00 +19°C° 0 mm 2 m/S 704 mmHg 58%
    17:00 +19°C° 0 mm 1 m/S 704 mmHg 62%
    18:00 +16°C° 0 mm 1 m/S 704 mmHg 67%
    19:00 +16°C° 0 mm 1 m/S 704 mmHg 70%
    20:00 +15°C° 0 mm 1 m/S 705 mmHg 73%
    21:00 +14°C° 0 mm 1 m/S 705 mmHg 75%
    22:00 +14°C° 0 mm 1 m/S 705 mmHg 76%
    23:00 +14°C° 0 mm 1 m/S 705 mmHg 77%
    Mehr zeigen